owner,sensor,date,latitude,longitude,vertical_datum,wind_speed,wind_to_direction,wind_speed_of_gust,qcFlag 
DISL,ioos:station:DISL:CATA:1,2019-05-01T00:00:00Z,30.3085,-88.1395,0.0,7.1,112.0,99.0,'11111222,11111222,11144222' 
DISL,ioos:station:DISL:CATA:1,2019-05-01T00:30:00Z,30.3085,-88.1395,0.0,7.0,115.0,99.0,'11111222,11111222,11144222' 
DISL,ioos:station:DISL:CATA:1,2019-05-01T00:40:00Z,30.3085,-88.1395,0.0,6.92,118.9,-9999.0,'11111222,11111222,99999222' 
DISL,ioos:station:DISL:CATA:1,2019-05-01T01:00:00Z,30.3085,-88.1395,0.0,6.9,122.0,99.0,'11111222,11111222,11144222' 
DISL,ioos:station:DISL:CATA:1,2019-05-01T01:30:00Z,30.3085,-88.1395,0.0,7.4,134.0,99.0,'11111222,11111222,11144222' 
DISL,ioos:station:DISL:CATA:1,2019-05-01T01:40:00Z,30.3085,-88.1395,0.0,7.1,134.1,-9999.0,'11111222,11111222,99999222' 
DISL,ioos:station:DISL:CATA:1,2019-05-01T02:00:00Z,30.3085,-88.1395,0.0,8.3,142.0,99.0,'11111222,11111222,11144222' 
DISL,ioos:station:DISL:CATA:1,2019-05-01T02:30:00Z,30.3085,-88.1395,0.0,8.0,141.0,99.0,'11111222,11111222,11144222' 
DISL,ioos:station:DISL:CATA:1,2019-05-01T02:40:00Z,30.3085,-88.1395,0.0,8.13,137.6,-9999.0,'11111222,11111222,99999222' 
DISL,ioos:station:DISL:CATA:1,2019-05-01T03:00:00Z,30.3085,-88.1395,0.0,6.5,126.0,99.0,'11111222,11111222,11144222' 
DISL,ioos:station:DISL:CATA:1,2019-05-01T03:30:00Z,30.3085,-88.1395,0.0,7.1,128.0,99.0,'11111222,11111222,11144222' 
DISL,ioos:station:DISL:CATA:1,2019-05-01T03:40:00Z,30.3085,-88.1395,0.0,6.68,125.4,-9999.0,'11111222,11111222,99999222' 
DISL,ioos:station:DISL:CATA:1,2019-05-01T04:00:00Z,30.3085,-88.1395,0.0,6.3,128.0,99.0,'11111222,11111222,11144222' 
DISL,ioos:station:DISL:CATA:1,2019-05-01T04:30:00Z,30.3085,-88.1395,0.0,5.4,123.0,99.0,'11111222,11111222,11144222' 
DISL,ioos:station:DISL:CATA:1,2019-05-01T04:40:00Z,30.3085,-88.1395,0.0,5.44,125.9,-9999.0,'11111222,11111222,99999222' 
DISL,ioos:station:DISL:CATA:1,2019-05-01T05:00:00Z,30.3085,-88.1395,0.0,4.4,137.0,99.0,'11111222,11111222,11144222' 
DISL,ioos:station:DISL:CATA:1,2019-05-01T05:30:00Z,30.3085,-88.1395,0.0,4.9,136.0,99.0,'11111222,11111222,11144222' 
DISL,ioos:station:DISL:CATA:1,2019-05-01T06:10:00Z,30.3085,-88.1395,0.0,6.69,139.8,-9999.0,'11111222,11111222,99999222' 
DISL,ioos:station:DISL:CATA:1,2019-05-01T06:30:00Z,30.3085,-88.1395,0.0,5.9,140.0,99.0,'11111222,11111222,11144222' 
DISL,ioos:station:DISL:CATA:1,2019-05-01T06:40:00Z,30.3085,-88.1395,0.0,5.7,143.3,-9999.0,'11111222,11111222,99999222' 
DISL,ioos:station:DISL:CATA:1,2019-05-01T07:00:00Z,30.3085,-88.1395,0.0,5.1,137.0,99.0,'11111222,11111222,11144222' 
DISL,ioos:station:DISL:CATA:1,2019-05-01T07:30:00Z,30.3085,-88.1395,0.0,4.3,145.0,99.0,'11111222,11111222,11144222' 
DISL,ioos:station:DISL:CATA:1,2019-05-01T07:40:00Z,30.3085,-88.1395,0.0,3.98,138.4,-9999.0,'11111222,11111222,99999222' 
DISL,ioos:station:DISL:CATA:1,2019-05-01T08:00:00Z,30.3085,-88.1395,0.0,4.2,136.0,99.0,'11111222,11111222,11144222' 
DISL,ioos:station:DISL:CATA:1,2019-05-01T08:30:00Z,30.3085,-88.1395,0.0,4.3,134.0,99.0,'11111222,11111222,11144222' 
DISL,ioos:station:DISL:CATA:1,2019-05-01T08:40:00Z,30.3085,-88.1395,0.0,4.55,129.2,-9999.0,'11111222,11111222,99999222' 
DISL,ioos:station:DISL:CATA:1,2019-05-01T09:00:00Z,30.3085,-88.1395,0.0,4.3,131.0,99.0,'11111222,11111222,11144222' 
DISL,ioos:station:DISL:CATA:1,2019-05-01T09:30:00Z,30.3085,-88.1395,0.0,4.2,132.0,99.0,'11111222,11111222,11144222' 
DISL,ioos:station:DISL:CATA:1,2019-05-01T09:40:00Z,30.3085,-88.1395,0.0,4.02,124.9,-9999.0,'11111222,11111222,99999222' 
DISL,ioos:station:DISL:CATA:1,2019-05-01T10:00:00Z,30.3085,-88.1395,0.0,3.5,128.0,99.0,'11111222,11111222,11144222' 
DISL,ioos:station:DISL:CATA:1,2019-05-01T10:30:00Z,30.3085,-88.1395,0.0,3.8,121.0,99.0,'11111222,11111222,11144222' 
DISL,ioos:station:DISL:CATA:1,2019-05-01T10:40:00Z,30.3085,-88.1395,0.0,3.75,121.8,-9999.0,'11111222,11111222,99999222' 
DISL,ioos:station:DISL:CATA:1,2019-05-01T11:00:00Z,30.3085,-88.1395,0.0,3.4,126.0,99.0,'11111222,11111222,11144222' 
DISL,ioos:station:DISL:CATA:1,2019-05-01T11:30:00Z,30.3085,-88.1395,0.0,2.3,127.0,99.0,'11111222,11111222,11144222' 
DISL,ioos:station:DISL:CATA:1,2019-05-01T11:40:00Z,30.3085,-88.1395,0.0,2.67,116.6,-9999.0,'11111222,11111222,99999222' 
DISL,ioos:station:DISL:CATA:1,2019-05-01T12:00:00Z,30.3085,-88.1395,0.0,3.1,103.0,99.0,'11111222,11111222,11144222' 
DISL,ioos:station:DISL:CATA:1,2019-05-01T12:30:00Z,30.3085,-88.1395,0.0,3.4,102.0,99.0,'11111222,11111222,11144222' 
DISL,ioos:station:DISL:CATA:1,2019-05-01T12:40:00Z,30.3085,-88.1395,0.0,3.49,105.1,-9999.0,'11111222,11111222,99999222' 
DISL,ioos:station:DISL:CATA:1,2019-05-01T13:00:00Z,30.3085,-88.1395,0.0,4.4,99.0,99.0,'11111222,11111222,11144222' 
DISL,ioos:station:DISL:CATA:1,2019-05-01T13:30:00Z,30.3085,-88.1395,0.0,4.3,109.0,99.0,'11111222,11111222,11144222' 
DISL,ioos:station:DISL:CATA:1,2019-05-01T13:40:00Z,30.3085,-88.1395,0.0,3.96,106.3,-9999.0,'11111222,11111222,99999222' 
DISL,ioos:station:DISL:CATA:1,2019-05-01T14:00:00Z,30.3085,-88.1395,0.0,3.4,111.0,99.0,'11111222,11111222,11144222' 
DISL,ioos:station:DISL:CATA:1,2019-05-01T14:30:00Z,30.3085,-88.1395,0.0,2.4,102.0,99.0,'11111222,11111222,11144222' 
DISL,ioos:station:DISL:CATA:1,2019-05-01T14:40:00Z,30.3085,-88.1395,0.0,2.44,110.7,-9999.0,'11111222,11111222,99999222' 
DISL,ioos:station:DISL:CATA:1,2019-05-01T15:00:00Z,30.3085,-88.1395,0.0,2.9,105.0,99.0,'11111222,11111222,11144222' 
DISL,ioos:station:DISL:CATA:1,2019-05-01T15:30:00Z,30.3085,-88.1395,0.0,2.6,114.0,99.0,'11111222,11111222,11144222' 
DISL,ioos:station:DISL:CATA:1,2019-05-01T15:40:00Z,30.3085,-88.1395,0.0,2.73,112.5,-9999.0,'11111222,11111222,99999222' 
DISL,ioos:station:DISL:CATA:1,2019-05-01T16:00:00Z,30.3085,-88.1395,0.0,4.2,113.0,99.0,'11111222,11111222,11144222' 
DISL,ioos:station:DISL:CATA:1,2019-05-01T16:30:00Z,30.3085,-88.1395,0.0,4.6,115.0,99.0,'11111222,11111222,11144222' 
DISL,ioos:station:DISL:CATA:1,2019-05-01T16:40:00Z,30.3085,-88.1395,0.0,4.75,114.5,-9999.0,'11111222,11111222,99999222' 
DISL,ioos:station:DISL:CATA:1,2019-05-01T17:00:00Z,30.3085,-88.1395,0.0,5.3,117.0,99.0,'11111222,11111222,11144222' 
DISL,ioos:station:DISL:CATA:1,2019-05-01T17:30:00Z,30.3085,-88.1395,0.0,4.9,116.0,99.0,'11111222,11111222,11144222' 
DISL,ioos:station:DISL:CATA:1,2019-05-01T17:40:00Z,30.3085,-88.1395,0.0,4.81,122.4,-9999.0,'11111222,11111222,99999222' 
DISL,ioos:station:DISL:CATA:1,2019-05-01T18:00:00Z,30.3085,-88.1395,0.0,4.9,122.0,99.0,'11111222,11111222,11144222' 
DISL,ioos:station:DISL:CATA:1,2019-05-01T18:30:00Z,30.3085,-88.1395,0.0,4.9,116.0,99.0,'11111222,11111222,11144222' 
DISL,ioos:station:DISL:CATA:1,2019-05-01T18:40:00Z,30.3085,-88.1395,0.0,4.53,114.4,-9999.0,'11111222,11111222,99999222' 
DISL,ioos:station:DISL:CATA:1,2019-05-01T19:00:00Z,30.3085,-88.1395,0.0,4.0,113.0,99.0,'11111222,11111222,11144222' 
DISL,ioos:station:DISL:CATA:1,2019-05-01T19:30:00Z,30.3085,-88.1395,0.0,4.5,118.0,99.0,'11111222,11111222,11144222' 
DISL,ioos:station:DISL:CATA:1,2019-05-01T19:40:00Z,30.3085,-88.1395,0.0,4.15,113.7,-9999.0,'11111222,11111222,99999222' 
DISL,ioos:station:DISL:CATA:1,2019-05-01T20:00:00Z,30.3085,-88.1395,0.0,4.3,119.0,99.0,'11111222,11111222,11144222' 
DISL,ioos:station:DISL:CATA:1,2019-05-01T20:30:00Z,30.3085,-88.1395,0.0,5.5,116.0,99.0,'11111222,11111222,11144222' 
DISL,ioos:station:DISL:CATA:1,2019-05-01T20:40:00Z,30.3085,-88.1395,0.0,5.9,114.5,-9999.0,'11111222,11111222,99999222' 
DISL,ioos:station:DISL:CATA:1,2019-05-01T21:00:00Z,30.3085,-88.1395,0.0,6.1,119.0,99.0,'11111222,11111222,11144222' 
DISL,ioos:station:DISL:CATA:1,2019-05-01T21:30:00Z,30.3085,-88.1395,0.0,5.8,120.0,99.0,'11111222,11111222,11144222' 
DISL,ioos:station:DISL:CATA:1,2019-05-01T21:40:00Z,30.3085,-88.1395,0.0,5.54,125.7,-9999.0,'11111222,11111222,99999222' 
DISL,ioos:station:DISL:CATA:1,2019-05-01T22:00:00Z,30.3085,-88.1395,0.0,5.2,126.0,99.0,'11111222,11111222,11144222' 
DISL,ioos:station:DISL:CATA:1,2019-05-01T22:30:00Z,30.3085,-88.1395,0.0,4.5,121.0,99.0,'11111222,11111222,11144222' 
DISL,ioos:station:DISL:CATA:1,2019-05-01T22:40:00Z,30.3085,-88.1395,0.0,4.54,120.5,-9999.0,'11111222,11111222,99999222' 
DISL,ioos:station:DISL:CATA:1,2019-05-01T23:00:00Z,30.3085,-88.1395,0.0,4.9,123.0,99.0,'11111222,11111222,11144222' 
DISL,ioos:station:DISL:CATA:1,2019-05-01T23:30:00Z,30.3085,-88.1395,0.0,5.3,118.0,99.0,'11111222,11111222,11144222' 
DISL,ioos:station:DISL:CATA:1,2019-05-01T23:40:00Z,30.3085,-88.1395,0.0,5.41,119.1,-9999.0,'11111222,11111222,99999222' 
DISL,ioos:station:DISL:CATA:1,2019-05-02T00:00:00Z,30.3085,-88.1395,0.0,5.2,118.0,99.0,'11111222,11111222,11144222' 
DISL,ioos:station:DISL:CATA:1,2019-05-02T00:30:00Z,30.3085,-88.1395,0.0,4.6,123.0,99.0,'11111222,11111222,11144222' 
DISL,ioos:station:DISL:CATA:1,2019-05-02T00:40:00Z,30.3085,-88.1395,0.0,4.4,119.3,-9999.0,'11111222,11111222,99999222' 
DISL,ioos:station:DISL:CATA:1,2019-05-02T01:00:00Z,30.3085,-88.1395,0.0,5.0,121.0,99.0,'11111222,11111222,11144222' 
DISL,ioos:station:DISL:CATA:1,2019-05-02T01:30:00Z,30.3085,-88.1395,0.0,5.2,125.0,99.0,'11111222,11111222,11144222' 
DISL,ioos:station:DISL:CATA:1,2019-05-02T01:40:00Z,30.3085,-88.1395,0.0,5.09,125.5,-9999.0,'11111222,11111222,99999222' 
DISL,ioos:station:DISL:CATA:1,2019-05-02T02:00:00Z,30.3085,-88.1395,0.0,5.5,129.0,99.0,'11111222,11111222,11144222' 
DISL,ioos:station:DISL:CATA:1,2019-05-02T02:30:00Z,30.3085,-88.1395,0.0,4.6,135.0,99.0,'11111222,11111222,11144222' 
DISL,ioos:station:DISL:CATA:1,2019-05-02T02:40:00Z,30.3085,-88.1395,0.0,4.44,131.4,-9999.0,'11111222,11111222,99999222' 
DISL,ioos:station:DISL:CATA:1,2019-05-02T03:00:00Z,30.3085,-88.1395,0.0,5.0,132.0,99.0,'11111222,11111222,11144222' 
DISL,ioos:station:DISL:CATA:1,2019-05-02T03:30:00Z,30.3085,-88.1395,0.0,5.4,134.0,99.0,'11111222,11111222,11144222' 
DISL,ioos:station:DISL:CATA:1,2019-05-02T03:40:00Z,30.3085,-88.1395,0.0,4.71,135.2,-9999.0,'11111222,11111222,99999222' 
DISL,ioos:station:DISL:CATA:1,2019-05-02T04:00:00Z,30.3085,-88.1395,0.0,3.8,134.0,99.0,'11111222,11111222,11144222' 
DISL,ioos:station:DISL:CATA:1,2019-05-02T04:30:00Z,30.3085,-88.1395,0.0,3.6,139.0,99.0,'11111222,11111222,11144222' 
DISL,ioos:station:DISL:CATA:1,2019-05-02T04:40:00Z,30.3085,-88.1395,0.0,3.19,133.3,-9999.0,'11111222,11111222,99999222' 
DISL,ioos:station:DISL:CATA:1,2019-05-02T05:00:00Z,30.3085,-88.1395,0.0,2.6,134.0,99.0,'11111222,11111222,11144222' 
DISL,ioos:station:DISL:CATA:1,2019-05-02T05:30:00Z,30.3085,-88.1395,0.0,1.7,139.0,99.0,'11111222,11111222,11144222' 
DISL,ioos:station:DISL:CATA:1,2019-05-02T05:40:00Z,30.3085,-88.1395,0.0,1.31,131.2,-9999.0,'11111222,11111222,99999222' 
DISL,ioos:station:DISL:CATA:1,2019-05-02T06:30:00Z,30.3085,-88.1395,0.0,1.3,88.0,99.0,'11111222,11111222,11144222' 
DISL,ioos:station:DISL:CATA:1,2019-05-02T06:40:00Z,30.3085,-88.1395,0.0,1.56,99.2,-9999.0,'11111222,11111222,99999222' 
DISL,ioos:station:DISL:CATA:1,2019-05-02T07:00:00Z,30.3085,-88.1395,0.0,2.5,110.0,99.0,'11111222,11111222,11144222' 
DISL,ioos:station:DISL:CATA:1,2019-05-02T07:30:00Z,30.3085,-88.1395,0.0,1.6,84.0,99.0,'11111222,11111222,11144222' 
DISL,ioos:station:DISL:CATA:1,2019-05-02T07:40:00Z,30.3085,-88.1395,0.0,2.0,73.56,-9999.0,'11111222,11111222,99999222' 
DISL,ioos:station:DISL:CATA:1,2019-05-02T08:00:00Z,30.3085,-88.1395,0.0,2.6,84.0,99.0,'11111222,11111222,11144222' 
DISL,ioos:station:DISL:CATA:1,2019-05-02T08:30:00Z,30.3085,-88.1395,0.0,2.7,64.0,99.0,'11111222,11111222,11144222' 
DISL,ioos:station:DISL:CATA:1,2019-05-02T08:40:00Z,30.3085,-88.1395,0.0,2.81,61.62,-9999.0,'11111222,11111222,99999222' 
DISL,ioos:station:DISL:CATA:1,2019-05-02T09:00:00Z,30.3085,-88.1395,0.0,2.6,67.0,99.0,'11111222,11111222,11144222' 
DISL,ioos:station:DISL:CATA:1,2019-05-02T09:30:00Z,30.3085,-88.1395,0.0,3.1,72.0,99.0,'11111222,11111222,11144222' 
DISL,ioos:station:DISL:CATA:1,2019-05-02T09:40:00Z,30.3085,-88.1395,0.0,3.38,75.2,-9999.0,'11111222,11111222,99999222' 
DISL,ioos:station:DISL:CATA:1,2019-05-02T10:00:00Z,30.3085,-88.1395,0.0,3.3,85.0,99.0,'11111222,11111222,11144222' 
DISL,ioos:station:DISL:CATA:1,2019-05-02T10:30:00Z,30.3085,-88.1395,0.0,5.1,82.0,99.0,'11111222,11111222,11144222' 
DISL,ioos:station:DISL:CATA:1,2019-05-02T10:40:00Z,30.3085,-88.1395,0.0,5.16,85.8,-9999.0,'11111222,11111222,99999222' 
DISL,ioos:station:DISL:CATA:1,2019-05-02T11:00:00Z,30.3085,-88.1395,0.0,4.4,89.0,99.0,'11111222,11111222,11144222' 
DISL,ioos:station:DISL:CATA:1,2019-05-02T11:30:00Z,30.3085,-88.1395,0.0,4.7,84.0,99.0,'11111222,11111222,11144222' 
DISL,ioos:station:DISL:CATA:1,2019-05-02T11:40:00Z,30.3085,-88.1395,0.0,4.77,83.6,-9999.0,'11111222,11111222,99999222' 
DISL,ioos:station:DISL:CATA:1,2019-05-02T12:00:00Z,30.3085,-88.1395,0.0,5.3,86.0,99.0,'11111222,11111222,11144222' 
DISL,ioos:station:DISL:CATA:1,2019-05-02T12:30:00Z,30.3085,-88.1395,0.0,4.0,78.0,99.0,'11111222,11111222,11144222' 
DISL,ioos:station:DISL:CATA:1,2019-05-02T12:40:00Z,30.3085,-88.1395,0.0,4.25,78.2,-9999.0,'11111222,11111222,99999222' 
DISL,ioos:station:DISL:CATA:1,2019-05-02T13:00:00Z,30.3085,-88.1395,0.0,4.3,75.0,99.0,'11111222,11111222,11144222' 
DISL,ioos:station:DISL:CATA:1,2019-05-02T13:30:00Z,30.3085,-88.1395,0.0,4.3,80.0,99.0,'11111222,11111222,11144222' 
DISL,ioos:station:DISL:CATA:1,2019-05-02T13:40:00Z,30.3085,-88.1395,0.0,4.61,78.6,-9999.0,'11111222,11111222,99999222' 
DISL,ioos:station:DISL:CATA:1,2019-05-02T14:00:00Z,30.3085,-88.1395,0.0,4.6,85.0,99.0,'11111222,11111222,11144222' 
DISL,ioos:station:DISL:CATA:1,2019-05-02T14:30:00Z,30.3085,-88.1395,0.0,6.6,105.0,99.0,'11111222,11111222,11144222' 
DISL,ioos:station:DISL:CATA:1,2019-05-02T14:40:00Z,30.3085,-88.1395,0.0,6.84,103.9,-9999.0,'11111222,11111222,99999222' 
DISL,ioos:station:DISL:CATA:1,2019-05-02T15:00:00Z,30.3085,-88.1395,0.0,6.2,104.0,99.0,'11111222,11111222,11144222' 
DISL,ioos:station:DISL:CATA:1,2019-05-02T15:30:00Z,30.3085,-88.1395,0.0,5.5,105.0,99.0,'11111222,11111222,11144222' 
DISL,ioos:station:DISL:CATA:1,2019-05-02T15:40:00Z,30.3085,-88.1395,0.0,5.17,110.6,-9999.0,'11111222,11111222,99999222' 
DISL,ioos:station:DISL:CATA:1,2019-05-02T16:00:00Z,30.3085,-88.1395,0.0,5.4,112.0,99.0,'11111222,11111222,11144222' 
DISL,ioos:station:DISL:CATA:1,2019-05-02T16:30:00Z,30.3085,-88.1395,0.0,5.3,117.0,99.0,'11111222,11111222,11144222' 
DISL,ioos:station:DISL:CATA:1,2019-05-02T16:40:00Z,30.3085,-88.1395,0.0,5.07,121.3,-9999.0,'11111222,11111222,99999222' 
DISL,ioos:station:DISL:CATA:1,2019-05-02T17:00:00Z,30.3085,-88.1395,0.0,4.9,119.0,99.0,'11111222,11111222,11144222' 
DISL,ioos:station:DISL:CATA:1,2019-05-02T17:30:00Z,30.3085,-88.1395,0.0,4.5,119.0,99.0,'11111222,11111222,11144222' 
DISL,ioos:station:DISL:CATA:1,2019-05-02T17:40:00Z,30.3085,-88.1395,0.0,4.15,121.2,-9999.0,'11111222,11111222,99999222' 
DISL,ioos:station:DISL:CATA:1,2019-05-02T18:00:00Z,30.3085,-88.1395,0.0,3.9,116.0,99.0,'11111222,11111222,11144222' 
DISL,ioos:station:DISL:CATA:1,2019-05-02T18:30:00Z,30.3085,-88.1395,0.0,4.3,120.0,99.0,'11111222,11111222,11144222' 
DISL,ioos:station:DISL:CATA:1,2019-05-02T18:40:00Z,30.3085,-88.1395,0.0,4.39,116.7,-9999.0,'11111222,11111222,99999222' 
DISL,ioos:station:DISL:CATA:1,2019-05-02T19:00:00Z,30.3085,-88.1395,0.0,4.3,119.0,99.0,'11111222,11111222,11144222' 
DISL,ioos:station:DISL:CATA:1,2019-05-02T19:30:00Z,30.3085,-88.1395,0.0,4.5,120.0,99.0,'11111222,11111222,11144222' 
DISL,ioos:station:DISL:CATA:1,2019-05-02T19:40:00Z,30.3085,-88.1395,0.0,4.4,118.3,-9999.0,'11111222,11111222,99999222' 
DISL,ioos:station:DISL:CATA:1,2019-05-02T20:00:00Z,30.3085,-88.1395,0.0,3.8,128.0,99.0,'11111222,11111222,11144222' 
DISL,ioos:station:DISL:CATA:1,2019-05-02T20:30:00Z,30.3085,-88.1395,0.0,4.6,122.0,99.0,'11111222,11111222,11144222' 
DISL,ioos:station:DISL:CATA:1,2019-05-02T20:40:00Z,30.3085,-88.1395,0.0,5.29,119.0,-9999.0,'11111222,11111222,99999222' 
DISL,ioos:station:DISL:CATA:1,2019-05-02T21:00:00Z,30.3085,-88.1395,0.0,5.2,124.0,99.0,'11111222,11111222,11144222' 
DISL,ioos:station:DISL:CATA:1,2019-05-02T21:30:00Z,30.3085,-88.1395,0.0,6.5,119.0,99.0,'11111222,11111222,11144222' 
DISL,ioos:station:DISL:CATA:1,2019-05-02T21:40:00Z,30.3085,-88.1395,0.0,6.25,121.3,-9999.0,'11111222,11111222,99999222' 
DISL,ioos:station:DISL:CATA:1,2019-05-02T22:00:00Z,30.3085,-88.1395,0.0,5.8,123.0,99.0,'11111222,11111222,11144222' 
DISL,ioos:station:DISL:CATA:1,2019-05-02T22:30:00Z,30.3085,-88.1395,0.0,6.4,120.0,99.0,'11111222,11111222,11144222' 
DISL,ioos:station:DISL:CATA:1,2019-05-02T22:40:00Z,30.3085,-88.1395,0.0,4.87,122.8,-9999.0,'11111222,11111222,99999222' 
DISL,ioos:station:DISL:CATA:1,2019-05-02T23:00:00Z,30.3085,-88.1395,0.0,3.7,132.0,99.0,'11111222,11111222,11144222' 
DISL,ioos:station:DISL:CATA:1,2019-05-02T23:30:00Z,30.3085,-88.1395,0.0,4.1,153.0,99.0,'11111222,11111222,11144222' 
DISL,ioos:station:DISL:CATA:1,2019-05-02T23:40:00Z,30.3085,-88.1395,0.0,3.44,165.9,-9999.0,'11111222,11111222,99999222' 
DISL,ioos:station:DISL:CATA:1,2019-05-03T00:00:00Z,30.3085,-88.1395,0.0,3.1,165.0,99.0,'11111222,11111222,11144222' 
DISL,ioos:station:DISL:CATA:1,2019-05-03T00:30:00Z,30.3085,-88.1395,0.0,3.3,170.0,99.0,'11111222,11111222,11144222' 
DISL,ioos:station:DISL:CATA:1,2019-05-03T00:40:00Z,30.3085,-88.1395,0.0,3.21,175.1,-9999.0,'11111222,11111222,99999222' 
DISL,ioos:station:DISL:CATA:1,2019-05-03T01:00:00Z,30.3085,-88.1395,0.0,3.1,159.0,99.0,'11111222,11111222,11144222' 
DISL,ioos:station:DISL:CATA:1,2019-05-03T01:30:00Z,30.3085,-88.1395,0.0,4.7,132.0,99.0,'11111222,11111222,11144222' 
DISL,ioos:station:DISL:CATA:1,2019-05-03T01:40:00Z,30.3085,-88.1395,0.0,5.33,128.7,-9999.0,'11111222,11111222,99999222' 
DISL,ioos:station:DISL:CATA:1,2019-05-03T02:00:00Z,30.3085,-88.1395,0.0,4.9,129.0,99.0,'11111222,11111222,11144222' 
DISL,ioos:station:DISL:CATA:1,2019-05-03T02:30:00Z,30.3085,-88.1395,0.0,2.1,154.0,99.0,'11111222,11111222,11144222' 
DISL,ioos:station:DISL:CATA:1,2019-05-03T02:40:00Z,30.3085,-88.1395,0.0,1.88,159.1,-9999.0,'11111222,11111222,99999222' 
DISL,ioos:station:DISL:CATA:1,2019-05-03T03:00:00Z,30.3085,-88.1395,0.0,0.9,225.0,99.0,'11111222,11111222,11144222' 
DISL,ioos:station:DISL:CATA:1,2019-05-03T03:30:00Z,30.3085,-88.1395,0.0,0.2,236.0,99.0,'11111222,11111222,11144222' 
DISL,ioos:station:DISL:CATA:1,2019-05-03T03:40:00Z,30.3085,-88.1395,0.0,0.57,260.0,-9999.0,'11111222,11111222,99999222' 
DISL,ioos:station:DISL:CATA:1,2019-05-03T04:00:00Z,30.3085,-88.1395,0.0,1.0,288.0,99.0,'11111222,11111222,11144222' 
DISL,ioos:station:DISL:CATA:1,2019-05-03T04:30:00Z,30.3085,-88.1395,0.0,0.4,316.0,99.0,'11111222,11111222,11144222' 
DISL,ioos:station:DISL:CATA:1,2019-05-03T04:40:00Z,30.3085,-88.1395,0.0,0.0,306.9,-9999.0,'11111222,11111222,99999222' 
DISL,ioos:station:DISL:CATA:1,2019-05-03T05:00:00Z,30.3085,-88.1395,0.0,0.7,317.0,99.0,'11111222,11111222,11144222' 
DISL,ioos:station:DISL:CATA:1,2019-05-03T05:30:00Z,30.3085,-88.1395,0.0,0.1,7.0,99.0,'11111222,11111222,11144222' 
DISL,ioos:station:DISL:CATA:1,2019-05-03T05:40:00Z,30.3085,-88.1395,0.0,1.01,165.0,-9999.0,'11111222,11111222,99999222' 
DISL,ioos:station:DISL:CATA:1,2019-05-03T06:30:00Z,30.3085,-88.1395,0.0,1.4,238.0,99.0,'11111222,11111222,11144222' 
DISL,ioos:station:DISL:CATA:1,2019-05-03T06:40:00Z,30.3085,-88.1395,0.0,1.52,250.5,-9999.0,'11111222,11111222,99999222' 
DISL,ioos:station:DISL:CATA:1,2019-05-03T07:00:00Z,30.3085,-88.1395,0.0,1.6,258.0,99.0,'11111222,11111222,11144222' 
DISL,ioos:station:DISL:CATA:1,2019-05-03T07:30:00Z,30.3085,-88.1395,0.0,1.4,209.0,99.0,'11111222,11111222,11144222' 
DISL,ioos:station:DISL:CATA:1,2019-05-03T07:40:00Z,30.3085,-88.1395,0.0,1.28,220.7,-9999.0,'11111222,11111222,99999222' 
DISL,ioos:station:DISL:CATA:1,2019-05-03T08:00:00Z,30.3085,-88.1395,0.0,0.9,196.0,99.0,'11111222,11111222,11144222' 
DISL,ioos:station:DISL:CATA:1,2019-05-03T08:30:00Z,30.3085,-88.1395,0.0,0.6,189.0,99.0,'11111222,11111222,11144222' 
DISL,ioos:station:DISL:CATA:1,2019-05-03T08:40:00Z,30.3085,-88.1395,0.0,0.38,167.4,-9999.0,'11111222,11111222,99999222' 
DISL,ioos:station:DISL:CATA:1,2019-05-03T09:00:00Z,30.3085,-88.1395,0.0,1.7,2.0,99.0,'11111222,11111222,11144222' 
DISL,ioos:station:DISL:CATA:1,2019-05-03T09:30:00Z,30.3085,-88.1395,0.0,0.3,343.0,99.0,'11111222,11111222,11144222' 
DISL,ioos:station:DISL:CATA:1,2019-05-03T09:40:00Z,30.3085,-88.1395,0.0,1.5,334.1,-9999.0,'11111222,11111222,99999222' 
DISL,ioos:station:DISL:CATA:1,2019-05-03T10:00:00Z,30.3085,-88.1395,0.0,1.7,343.0,99.0,'11111222,11111222,11144222' 
DISL,ioos:station:DISL:CATA:1,2019-05-03T10:30:00Z,30.3085,-88.1395,0.0,2.6,339.0,99.0,'11111222,11111222,11144222' 
DISL,ioos:station:DISL:CATA:1,2019-05-03T10:40:00Z,30.3085,-88.1395,0.0,2.13,352.6,-9999.0,'11111222,11111222,99999222' 
DISL,ioos:station:DISL:CATA:1,2019-05-03T11:00:00Z,30.3085,-88.1395,0.0,2.4,1.0,99.0,'11111222,11111222,11144222' 
DISL,ioos:station:DISL:CATA:1,2019-05-03T11:30:00Z,30.3085,-88.1395,0.0,2.6,356.0,99.0,'11111222,11111222,11144222' 
DISL,ioos:station:DISL:CATA:1,2019-05-03T11:40:00Z,30.3085,-88.1395,0.0,2.74,349.9,-9999.0,'11111222,11111222,99999222' 
DISL,ioos:station:DISL:CATA:1,2019-05-03T12:00:00Z,30.3085,-88.1395,0.0,2.5,348.0,99.0,'11111222,11111222,11144222' 
DISL,ioos:station:DISL:CATA:1,2019-05-03T12:30:00Z,30.3085,-88.1395,0.0,2.2,359.0,99.0,'11111222,11111222,11144222' 
DISL,ioos:station:DISL:CATA:1,2019-05-03T12:40:00Z,30.3085,-88.1395,0.0,2.74,18.88,-9999.0,'11111222,11111222,99999222' 
DISL,ioos:station:DISL:CATA:1,2019-05-03T13:00:00Z,30.3085,-88.1395,0.0,2.8,29.0,99.0,'11111222,11111222,11144222' 
DISL,ioos:station:DISL:CATA:1,2019-05-03T13:30:00Z,30.3085,-88.1395,0.0,3.7,27.0,99.0,'11111222,11111222,11144222' 
DISL,ioos:station:DISL:CATA:1,2019-05-03T13:40:00Z,30.3085,-88.1395,0.0,3.59,30.3,-9999.0,'11111222,11111222,99999222' 
DISL,ioos:station:DISL:CATA:1,2019-05-03T14:00:00Z,30.3085,-88.1395,0.0,4.1,27.0,99.0,'11111222,11111222,11144222' 
DISL,ioos:station:DISL:CATA:1,2019-05-03T14:30:00Z,30.3085,-88.1395,0.0,3.6,35.0,99.0,'11111222,11111222,11144222' 
DISL,ioos:station:DISL:CATA:1,2019-05-03T14:40:00Z,30.3085,-88.1395,0.0,3.3,35.89,-9999.0,'11111222,11111222,99999222' 
DISL,ioos:station:DISL:CATA:1,2019-05-03T15:00:00Z,30.3085,-88.1395,0.0,3.3,40.0,99.0,'11111222,11111222,11144222' 
DISL,ioos:station:DISL:CATA:1,2019-05-03T15:30:00Z,30.3085,-88.1395,0.0,3.1,59.0,99.0,'11111222,11111222,11144222' 
DISL,ioos:station:DISL:CATA:1,2019-05-03T15:40:00Z,30.3085,-88.1395,0.0,2.75,60.99,-9999.0,'11111222,11111222,99999222' 
DISL,ioos:station:DISL:CATA:1,2019-05-03T16:00:00Z,30.3085,-88.1395,0.0,3.4,61.0,99.0,'11111222,11111222,11144222' 
DISL,ioos:station:DISL:CATA:1,2019-05-03T16:30:00Z,30.3085,-88.1395,0.0,3.1,78.0,99.0,'11111222,11111222,11144222' 
DISL,ioos:station:DISL:CATA:1,2019-05-03T16:40:00Z,30.3085,-88.1395,0.0,2.89,86.2,-9999.0,'11111222,11111222,99999222' 
DISL,ioos:station:DISL:CATA:1,2019-05-03T17:00:00Z,30.3085,-88.1395,0.0,2.2,94.0,99.0,'11111222,11111222,11144222' 
DISL,ioos:station:DISL:CATA:1,2019-05-03T17:30:00Z,30.3085,-88.1395,0.0,2.8,95.0,99.0,'11111222,11111222,11144222' 
DISL,ioos:station:DISL:CATA:1,2019-05-03T17:40:00Z,30.3085,-88.1395,0.0,3.0,101.7,-9999.0,'11111222,11111222,99999222' 
DISL,ioos:station:DISL:CATA:1,2019-05-03T18:00:00Z,30.3085,-88.1395,0.0,3.1,120.0,99.0,'11111222,11111222,11144222' 
DISL,ioos:station:DISL:CATA:1,2019-05-03T18:30:00Z,30.3085,-88.1395,0.0,4.7,166.0,99.0,'11111222,11111222,11144222' 
DISL,ioos:station:DISL:CATA:1,2019-05-03T18:40:00Z,30.3085,-88.1395,0.0,4.91,167.6,-9999.0,'11111222,11111222,99999222' 
DISL,ioos:station:DISL:CATA:1,2019-05-03T19:00:00Z,30.3085,-88.1395,0.0,5.2,171.0,99.0,'11111222,11111222,11144222' 
DISL,ioos:station:DISL:CATA:1,2019-05-03T19:30:00Z,30.3085,-88.1395,0.0,5.0,164.0,99.0,'11111222,11111222,11144222' 
DISL,ioos:station:DISL:CATA:1,2019-05-03T19:40:00Z,30.3085,-88.1395,0.0,5.11,161.4,-9999.0,'11111222,11111222,99999222' 
DISL,ioos:station:DISL:CATA:1,2019-05-03T20:00:00Z,30.3085,-88.1395,0.0,4.5,162.0,99.0,'11111222,11111222,11144222' 